Simultaneous Nadir Overpasses (SNOs) Predictions

Prediction of SNOs between NOAA-19 and NPP Satellite Orbit:

Table of predicted SNOs for the next 14.0 days since TLE Epoch: 6/15/2013
Index Date (NOAA-19) Time (NOAA-19) Lat,Lon (NOAA-19) SZA (NOAA-19 ) Date (NPP) Time (NPP) Lat,Lon (NPP) SZA (NPP ) Distance(km) Time Diff (sec)
1 06/26/2013 17:47:37 80.94,-139.93 61.51 06/26/2013 17:48:49 80.94,-139.89 61.47 0.70 72
2 06/26/2013 18:38:42 -80.92, 27.74 118.56 06/26/2013 18:39:33 -80.92, 27.85 118.60 1.90 51
3 06/26/2013 19:29:39 80.91,-164.53 61.38 06/26/2013 19:30:17 80.91,-164.58 61.36 0.94 38
4 06/26/2013 20:20:45 -80.90, 2.77 118.64 06/26/2013 20:21:02 -80.91, 2.79 118.65 0.34 17
5 06/26/2013 21:11:41 80.87, 170.87 61.24 06/26/2013 21:11:45 80.88, 170.72 61.26 2.56 4
6 06/26/2013
